Wetbulb
75.44 75.33 75.60 76.01 76.22 75.43 74.88 74.20 73.51 72.57 72.29 71.99 72.83 72.25 71.18 70.64 69.83 68.64 67.07 66.69 67.39 65.63 66.40 64.81 65.28 64.44 63.29 63.05 64.17 62.81 61.67 61.17 58.54 58.68 60.77 62.26 63.45 63.32 64.70 65.35 65.57 64.13 63.57
76.03 76.27 75.85 76.00 76.67 76.32 75.37 74.60 74.62 72.93 72.81 72.44 72.02 71.90 71.03 70.56 69.69 68.97 67.66 67.39 66.47 66.06 65.29 64.64 64.06 65.54 62.99 63.58 62.83 62.58 62.32 62.36 60.53 58.23 60.17 61.09 61.62 62.33 63.23 63.54 65.17 66.27 63.73
76.10 76.30 76.42 76.01 75.85 76.56 75.97 75.21 74.84 74.26 73.12 72.22 71.72 71.05 70.93 70.63 69.96 69.41 68.22 66.27 66.95 66.79 66.68 65.52 64.64 64.53 64.16 64.40 64.40 63.07 63.26 63.36 62.01 60.16 59.50 61.30 61.43 61.40 61.22 62.70 62.77 63.10 64.68
76.11 76.10 75.85 76.05 76.22 76.34 76.76 75.35 74.92 75.35 73.70 71.84 71.50 71.01 70.68 70.54 69.90 69.57 68.56 67.35 66.55 66.44 67.17 66.86 65.62 65.12 64.26 64.25 63.29 63.14 63.13 61.99 61.37 60.01 59.14 59.26 59.69 59.97 60.39 58.07 57.84 59.54 60.60
75.19 75.58 75.52 76.20 76.70 76.66 76.37 76.14 74.74 75.13 74.67 72.32 71.17 71.12 70.81 70.42 69.88 68.89 68.53 67.71 66.97 66.23 66.97 67.90 67.31 67.56 67.85 65.78 64.28 62.81 62.59 61.07 59.42 58.36 57.56 56.89 57.06 57.60 57.29 57.68 57.55 58.09 59.06
74.04 74.76 75.49 75.44 76.24 76.08 75.99 75.77 75.47 74.56 75.17 73.19 71.22 70.68 69.99 70.79 66.24 67.09 68.63 68.30 67.59 67.01 66.20 66.45 65.98 68.37 67.80 66.65 65.68 65.08 63.10 59.79 57.95 57.91 57.24 57.14 57.45 59.09 60.23 58.41 57.66 55.67 54.53
71.81 73.69 74.53 75.06 75.47 75.74 75.94 75.47 75.35 74.69 75.20 73.38 71.74 70.61 69.01 69.16 64.29 65.01 67.03 68.18 67.68 67.17 66.76 66.60 66.87 66.91 64.99 63.54 63.57 63.49 63.29 62.94 62.14 59.27 57.60 57.42 57.70 59.01 59.87 58.95 58.45 58.06 57.25
71.89 72.48 74.06 74.42 75.34 75.94 75.74 75.38 75.33 75.32 74.02 72.66 71.20 70.32 68.80 68.65 63.13 61.68 64.58 67.34 66.23 66.44 67.09 66.45 66.03 65.54 65.24 63.40 62.71 61.18 61.71 62.14 61.81 62.16 60.67 60.39 59.72 60.72 60.10 59.61 58.22 56.08 55.25
71.43 72.01 73.65 74.51 74.98 75.76 75.45 75.53 75.42 74.76 73.72 71.83 70.19 69.10 68.12 67.76 61.98 60.15 61.48 65.32 64.80 64.80 66.32 67.53 67.19 65.26 63.83 62.66 62.49 61.11 60.30 60.92 62.53 61.68 61.61 61.53 61.09 61.12 61.27 56.50 54.42 51.82 51.40
71.47 72.94 73.85 74.72 75.37 75.73 75.89 75.29 74.56 73.69 72.26 70.74 69.59 69.09 66.35 68.16 60.08 58.81 60.35 64.99 64.14 64.37 65.14 66.23 63.16 64.31 60.73 59.90 61.67 59.85 59.03 59.43 59.96 60.45 60.36 59.08 58.94 58.09 59.84 56.90 56.95 52.27 52.84
73.93 75.33 75.67 76.18 76.45 76.37 75.37 74.89 74.41 72.08 70.81 69.57 68.68 68.58 68.75 68.07 64.52 56.78 56.76 64.92 64.35 64.11 65.01 65.39 65.71 59.56 57.17 56.08 57.93 60.31 59.86 58.90 58.08 55.62 55.24 55.35 55.25 55.14 56.58 57.79 57.91 55.94 53.64
75.42 76.34 76.28 76.38 76.25 74.97 73.58 72.99 72.59 71.46 69.73 68.31 67.22 66.14 66.93 67.81 63.15 55.83 55.29 58.62 63.41 65.86 65.21 64.94 63.48 58.03 54.27 53.90 56.38 57.90 55.72 54.92 54.40 53.80 53.91 53.21 52.67 53.69 55.64 55.93 56.76 57.16 57.10
75.88 75.54 75.59 74.63 74.29 72.73 71.31 70.21 69.40 68.81 67.93 66.01 66.23 65.50 65.79 67.60 67.53 57.09 54.12 54.85 57.65 64.05 64.10 59.12 55.27 53.72 52.62 53.86 55.24 56.48 54.95 52.69 52.47 52.69 52.07 52.41 52.55 54.36 54.44 51.74 51.68 50.00 49.33
73.97 73.23 72.19 71.80 71.02 70.86 69.65 69.24 68.47 67.67 67.17 66.63 66.49 65.58 64.82 65.31 64.04 59.98 58.37 56.68 56.72 57.51 56.14 54.57 55.49 55.75 55.15 56.12 54.13 53.56 52.59 52.60 52.78 52.63 53.07 52.36 51.84 49.93 49.14 49.46 47.29 46.48 44.41
72.60 70.68 69.51 68.09 63.55 58.63 55.20 61.28 65.39 59.74 62.75 67.25 67.04 66.85 65.00 64.43 63.25 59.38 58.53 59.76 59.40 58.09 56.95 55.82 54.09 53.63 53.05 52.85 53.35 52.81 54.11 53.97 54.13 54.42 54.04 50.92 48.58 48.62 48.19 47.38 45.78 43.95 42.27
68.84 68.59 65.68 64.32 62.90 60.39 58.05 53.21 45.86 46.59 45.44 46.61 50.72 57.77 53.78 54.37 50.44 49.66 49.86 50.50 52.42 53.15 56.28 57.31 54.42 54.62 54.74 55.08 54.71 54.71 56.68 56.90 55.57 55.09 52.99 49.55 47.70 47.80 45.96 46.09 44.96 43.32 43.58
68.27 66.70 65.43 63.68 63.64 61.77 59.80 57.95 53.85 50.47 45.68 43.66 44.47 46.73 49.41 46.89 44.94 43.78 43.29 44.73 47.13 50.29 55.09 55.97 55.75 55.03 54.97 55.23 55.92 56.18 53.99 54.24 53.73 51.88 48.71 48.42 47.46 45.89 46.13 44.16 43.42 43.67 43.32
67.49 61.98 67.35 65.90 65.26 63.64 61.15 59.03 57.13 56.06 54.60 52.14 44.65 44.83 42.49 42.43 42.68 42.69 43.89 48.32 50.57 49.94 51.91 52.05 51.81 52.50 54.13 53.60 51.83 50.93 49.28 49.13 47.66 44.96 44.27 44.18 44.01 44.77 43.59 42.96 43.22 41.79 41.98
67.46 67.35 66.95 66.47 65.87 63.56 63.27 59.82 58.69 58.35 54.07 49.61 47.77 46.34 42.73 42.27 42.75 43.70 44.64 51.66 51.71 51.59 50.84 51.06 49.66 49.72 50.08 49.90 49.72 48.76 47.44 45.50 43.88 43.35 42.95 43.79 45.13 42.60 41.83 42.62 42.66 44.53 44.52
63.58 62.96 63.70 65.04 64.51 64.46 62.92 60.20 59.56 57.11 53.29 51.69 50.76 49.27 47.98 47.28 47.99 47.77 47.52 48.69 50.73 49.63 48.73 49.07 49.24 48.79 49.04 48.60 47.34 46.15 45.34 44.76 44.40 44.96 44.38 43.86 42.75 41.94 41.80 42.79 42.14 41.89 41.91
61.36 60.30 60.85 60.38 60.24 60.61 60.43 61.06 61.62 57.70 55.33 54.30 53.42 51.73 47.83 50.97 49.98 49.38 49.34 50.45 50.95 51.08 49.72 49.14 48.91 48.43 48.23 47.51 46.49 43.94 42.95 43.35 43.33 42.37 41.83 41.96 42.23 42.09 43.06 41.90 42.34 42.97 41.92
60.47 59.35 59.72 60.15 60.45 60.24 60.53 60.03 61.42 59.43 57.50 56.43 55.22 51.66 45.83 52.04 52.72 52.55 53.05 53.43 52.61 51.39 51.12 49.81 48.81 48.59 45.94 44.28 42.94 42.42 42.55 43.06 42.44 41.67 41.83 41.96 41.98 42.83 42.61 42.40 43.02 42.09 41.86
61.67 61.14 60.74 59.87 60.05 59.08 59.77 58.89 57.73 56.75 57.67 56.96 56.77 53.39 50.49 52.29 53.03 54.05 55.22 55.12 54.77 54.05 51.32 50.27 49.51 47.58 45.55 43.56 42.80 43.44 42.51 42.39 42.30 42.46 41.55 41.57 41.88 42.49 42.67 42.19 42.37 40.81 41.00
61.92 61.35 61.16 59.85 59.25 58.32 57.76 58.25 59.47 55.12 57.26 56.86 55.04 53.82 53.08 53.61 53.69 53.83 53.29 53.53 52.70 52.20 51.83 49.26 48.57 47.42 44.65 42.92 42.00 42.70 43.25 41.36 41.06 39.72 39.29 39.44 40.31 41.83 43.24 42.41 41.25 41.39 41.19
61.83 61.76 61.46 58.87 57.06 57.07 57.25 58.21 57.10 57.73 56.88 55.93 54.57 54.48 54.10 54.84 54.11 55.52 54.26 53.31 52.82 51.36 50.62 49.49 48.10 46.54 45.03 43.15 41.02 37.77 35.44 34.39 37.18 36.58 38.92 38.35 38.83 40.90 42.24 39.80 40.22 41.17 41.68
57.89 59.62 59.11 59.45 59.01 57.82 55.93 56.90 57.44 56.35 56.76 57.37 55.21 54.74 54.60 55.58 54.13 54.52 55.21 53.02 52.33 52.33 50.72 49.75 48.93 47.75 45.72 43.90 41.01 35.97 31.78 33.37 35.71 34.39 35.17 36.09 37.78 39.77 41.47 40.49 41.22 41.48 41.39
MSLP
1005.85 1006.58 1007.32 1008.07 1008.80 1009.64 1010.09 1010.54 1010.97 1011.46 1011.96 1012.39 1012.99 1013.75 1014.30 1014.87 1015.28 1015.85 1016.34 1016.71 1016.99 1017.25 1017.53 1017.87 1017.93 1017.98 1018.11 1018.30 1018.43 1018.60 1018.94 1019.15 1019.53 1019.17 1018.86 1018.61 1018.53 1018.30 1018.01 1017.84 1017.77 1017.68 1017.65
1004.65 1005.62 1006.34 1007.14 1007.92 1008.65 1009.16 1009.71 1010.25 1010.78 1011.22 1011.74 1012.49 1013.09 1013.63 1014.10 1014.64 1015.28 1015.89 1016.27 1016.75 1016.95 1017.05 1017.43 1017.61 1017.63 1017.90 1018.02 1018.25 1018.55 1018.72 1018.73 1019.03 1019.18 1018.67 1018.37 1018.18 1017.83 1017.62 1017.69 1017.32 1017.11 1017.17
1003.66 1004.59 1005.47 1006.18 1006.97 1007.53 1008.16 1008.87 1009.43 1009.96 1010.49 1011.12 1011.64 1012.15 1012.66 1013.30 1014.06 1014.65 1015.22 1015.68 1016.04 1016.33 1016.49 1016.92 1017.25 1017.30 1017.55 1017.65 1017.82 1018.05 1018.24 1018.30 1018.55 1018.84 1018.85 1018.31 1017.96 1017.80 1017.66 1017.50 1017.48 1017.36 1017.10
1002.30 1003.29 1004.19 1004.98 1005.68 1006.36 1007.13 1007.97 1008.59 1009.07 1009.69 1010.30 1010.71 1011.25 1011.86 1012.59 1013.27 1013.91 1014.62 1015.14 1015.50 1015.77 1016.17 1016.24 1016.48 1016.78 1016.96 1017.14 1017.36 1017.60 1017.78 1018.13 1018.37 1018.65 1018.72 1018.51 1018.28 1017.68 1017.51 1017.79 1017.61 1017.36 1017.07
1001.16 1002.06 1002.77 1003.79 1004.54 1005.48 1006.26 1006.94 1007.66 1008.34 1008.75 1009.45 1010.23 1010.93 1011.55 1012.20 1012.77 1013.56 1014.19 1014.69 1015.08 1015.30 1015.40 1015.74 1015.79 1015.98 1016.14 1016.28 1016.62 1016.88 1017.32 1017.84 1018.07 1018.35 1018.43 1018.24 1018.03 1017.76 1017.68 1017.47 1017.48 1017.36 1017.00
1000.01 1000.73 1001.85 1002.75 1003.67 1004.49 1005.35 1006.04 1006.79 1007.52 1008.22 1008.96 1009.66 1010.40 1011.27 1011.90 1012.59 1013.06 1013.53 1014.05 1014.49 1014.67 1014.93 1015.09 1015.15 1015.47 1015.67 1015.73 1015.84 1016.17 1016.48 1017.11 1017.66 1018.10 1018.10 1018.13 1017.72 1017.57 1017.44 1017.35 1017.15 1017.20 1017.01
998.90 999.98 1000.87 1001.73 1002.50 1003.48 1004.44 1005.29 1006.03 1006.76 1007.62 1008.44 1009.34 1010.28 1011.13 1011.68 1011.92 1012.34 1012.97 1013.65 1014.03 1014.25 1014.32 1014.59 1014.88 1014.92 1015.10 1015.52 1015.96 1016.11 1016.27 1016.54 1016.74 1017.09 1017.37 1017.28 1017.16 1016.78 1016.92 1016.92 1016.60 1016.57 1016.30
998.07 998.97 999.89 1000.72 1001.61 1002.72 1003.68 1004.48 1005.43 1006.33 1007.21 1008.18 1009.11 1009.79 1010.51 1011.04 1011.69 1012.18 1012.56 1012.90 1013.36 1013.58 1013.78 1013.90 1014.32 1014.66 1015.04 1015.48 1016.05 1016.41 1016.26 1016.19 1016.33 1016.49 1016.49 1016.28 1016.21 1016.16 1016.36 1016.20 1016.11 1016.07 1015.92
997.21 997.98 998.79 999.81 1000.82 1001.85 1002.84 1003.86 1004.86 1005.93 1006.91 1007.76 1008.52 1009.41 1009.95 1010.42 1011.04 1011.44 1012.02 1012.64 1012.91 1013.09 1013.26 1013.52 1013.84 1014.33 1014.71 1015.26 1015.71 1016.04 1016.05 1015.95 1015.78 1015.82 1015.71 1015.53 1015.44 1015.54 1015.46 1015.84 1015.89 1016.14 1015.93
996.22 996.79 997.79 998.90 999.98 1001.07 1002.22 1003.34 1004.35 1005.18 1006.27 1007.38 1008.18 1008.55 1009.44 1010.24 1010.54 1010.77 1011.41 1011.73 1012.16 1012.91 1013.03 1013.10 1013.35 1013.85 1014.20 1014.81 1015.16 1015.66 1015.88 1015.69 1015.54 1015.42 1015.42 1015.20 1015.07 1014.88 1014.75 1015.09 1015.05 1015.55 1015.58
995.52 996.54 997.42 998.39 999.47 1000.54 1001.77 1002.94 1004.07 1005.13 1005.94 1006.58 1007.33 1007.74 1006.93 1008.56 1009.77 1010.52 1011.23 1011.85 1012.23 1012.58 1012.86 1012.95 1012.92 1013.25 1013.95 1014.43 1014.80 1015.08 1015.19 1015.35 1015.39 1015.52 1015.38 1015.12 1014.97 1014.69 1014.53 1014.17 1014.17 1014.70 1014.76
995.39 996.69 997.55 998.35 999.41 1000.50 1001.65 1003.07 1004.09 1004.79 1005.76 1006.86 1007.85 1008.46 1008.55 1008.60 1009.46 1010.27 1010.90 1011.23 1011.49 1012.09 1012.37 1012.41 1012.49 1012.68 1013.17 1013.80 1014.20 1014.51 1014.96 1014.94 1015.26 1015.40 1015.51 1015.28 1015.08 1014.63 1014.45 1014.11 1013.78 1013.75 1013.75
995.43 996.87 997.93 998.82 999.77 1000.79 1002.02 1003.25 1004.34 1005.21 1006.13 1007.32 1008.11 1008.91 1009.28 1009.26 1009.54 1010.12 1010.44 1010.88 1011.40 1011.76 1011.88 1012.25 1012.57 1012.70 1013.03 1013.81 1014.06 1014.33 1014.56 1014.97 1015.32 1015.21 1015.30 1015.00 1014.65 1014.35 1014.24 1013.99 1013.56 1013.38 1013.25
995.84 997.27 998.34 999.37 1000.62 1001.63 1002.65 1003.59 1004.50 1005.45 1006.34 1006.90 1007.32 1008.24 1008.85 1009.72 1009.96 1010.41 1010.95 1011.35 1011.74 1012.01 1012.16 1012.45 1012.76 1012.97 1013.13 1013.41 1013.90 1014.21 1014.33 1014.61 1014.60 1014.56 1014.58 1014.45 1014.27 1014.26 1014.22 1013.99 1013.95 1013.66 1013.66
996.69 998.09 999.15 1000.20 1001.26 1002.48 1003.59 1004.45 1004.83 1005.80 1006.31 1006.77 1006.71 1006.84 1008.41 1009.38 1009.57 1009.35 1010.05 1011.32 1011.69 1011.91 1012.34 1012.84 1013.18 1013.15 1013.42 1013.61 1013.83 1013.92 1014.17 1014.04 1014.15 1014.06 1014.22 1014.40 1014.39 1014.28 1014.20 1013.82 1013.82 1013.77 1013.83
997.40 998.75 999.82 1000.79 1001.63 1002.62 1003.92 1005.45 1006.18 1006.42 1006.11 1006.57 1007.37 1006.60 1007.83 1008.66 1009.34 1009.62 1010.50 1010.86 1011.37 1011.75 1012.27 1012.60 1012.86 1013.03 1013.07 1013.03 1013.22 1013.45 1013.42 1013.39 1013.54 1013.81 1013.97 1014.16 1014.16 1014.24 1014.10 1013.91 1013.74 1013.68 1013.68
998.01 999.47 999.97 1000.79 1002.23 1003.12 1004.49 1005.14 1006.03 1006.93 1007.41 1007.30 1007.52 1008.35 1007.91 1009.18 1009.70 1010.10 1010.74 1011.06 1011.31 1011.80 1012.11 1012.36 1012.41 1012.52 1012.30 1012.23 1012.52 1012.80 1013.09 1013.28 1013.34 1013.65 1013.98 1014.09 1014.09 1013.99 1013.97 1013.88 1013.64 1013.46 1013.20
998.52 998.83 999.81 1001.30 1002.13 1003.59 1004.17 1005.71 1006.06 1006.17 1008.50 1009.08 1009.07 1009.34 1009.42 1010.07 1010.22 1010.64 1010.95 1011.10 1011.59 1011.68 1011.87 1012.11 1012.03 1012.05 1012.08 1012.39 1012.66 1013.05 1013.40 1013.45 1013.75 1013.97 1014.04 1013.94 1013.92 1013.97 1013.96 1013.75 1013.54 1013.45 1012.99
998.80 999.73 999.96 1001.11 1002.10 1003.01 1003.75 1005.22 1005.67 1007.45 1008.12 1008.97 1009.51 1010.24 1010.75 1010.59 1010.58 1010.85 1011.11 1011.21 1011.35 1011.52 1011.70 1012.23 1012.27 1012.46 1012.48 1012.60 1012.91 1013.19 1013.35 1013.52 1013.57 1013.67 1013.78 1013.90 1013.86 1013.98 1013.76 1013.60 1013.39 1012.94 1012.63
999.48 999.80 1000.23 1001.02 1002.09 1002.66 1003.43 1004.18 1006.03 1007.03 1007.50 1008.49 1009.32 1009.99 1010.59 1010.43 1010.69 1010.84 1011.00 1011.03 1011.40 1011.67 1011.74 1012.15 1012.20 1012.44 1012.49 1012.65 1012.92 1013.10 1013.28 1013.33 1013.49 1013.67 1013.80 1013.94 1013.88 1013.72 1013.76 1013.60 1013.26 1012.98 1012.55
1000.55 1000.50 1000.80 1001.34 1001.87 1002.14 1002.90 1004.04 1005.02 1006.19 1006.85 1007.72 1008.50 1009.07 1009.07 1009.43 1010.02 1010.16 1010.14 1010.44 1010.83 1011.23 1011.36 1011.69 1012.03 1012.20 1012.26 1012.48 1012.76 1013.02 1013.23 1013.37 1013.42 1013.66 1013.75 1013.83 1013.79 1013.97 1013.65 1013.40 1013.09 1012.68 1012.30
1001.00 1001.34 1001.44 1001.35 1001.69 1002.43 1003.14 1003.76 1004.64 1005.35 1006.11 1006.74 1007.91 1008.59 1008.76 1009.27 1009.22 1009.38 1009.82 1010.06 1010.29 1010.11 1010.41 1011.00 1011.67 1012.01 1012.26 1012.54 1012.87 1013.07 1013.25 1013.51 1013.58 1013.59 1013.72 1013.80 1013.90 1013.89 1013.56 1013.38 1013.02 1012.65 1012.21
1001.98 1002.68 1002.74 1002.28 1002.42 1003.55 1003.96 1003.76 1004.36 1005.07 1005.54 1006.34 1007.10 1008.06 1008.91 1008.76 1008.78 1008.67 1008.60 1008.97 1009.93 1009.85 1010.09 1010.69 1011.32 1011.77 1012.04 1012.22 1012.34 1012.70 1013.09 1013.47 1013.64 1013.61 1013.84 1013.97 1014.05 1013.99 1013.66 1013.38 1013.03 1012.64 1012.20
1003.15 1003.81 1003.94 1003.61 1003.18 1003.70 1003.88 1004.02 1004.42 1005.18 1005.47 1006.00 1006.59 1007.24 1007.84 1008.14 1008.18 1008.42 1008.30 1008.81 1009.41 1009.51 1009.81 1010.30 1010.81 1011.34 1011.84 1012.06 1012.27 1012.47 1012.79 1013.14 1013.27 1013.47 1013.67 1013.90 1013.99 1013.88 1013.59 1013.27 1012.93 1012.57 1012.07
1003.09 1003.42 1003.52 1002.98 1003.21 1003.56 1003.62 1003.93 1004.36 1004.86 1005.36 1005.66 1006.08 1006.75 1007.07 1007.37 1007.47 1007.77 1008.00 1008.61 1008.84 1009.39 1009.65 1010.01 1010.28 1010.71 1011.18 1011.71 1012.18 1012.54 1012.81 1012.94 1013.19 1013.37 1013.56 1013.73 1013.90 1013.80 1013.45 1013.10 1012.76 1012.49 1012.02
1002.30 1002.47 1002.39 1002.44 1002.85 1003.39 1003.66 1004.05 1004.29 1004.43 1004.96 1005.27 1005.74 1006.23 1006.39 1006.51 1007.08 1007.23 1007.28 1007.99 1008.30 1008.81 1009.14 1009.41 1009.67 1010.10 1010.65 1011.25 1011.72 1012.12 1012.52 1012.85 1013.15 1013.28 1013.48 1013.73 1013.77 1013.63 1013.33 1012.87 1012.59 1012.45 1012.07
Wind_Speed
21 19 18 15 16 13 12 9 8 9 10 14 14 12 11 11 10 8 7 7 8 7 5 6 6 5 3 2 2 1 2 3 3 4 3 3 3 3 4 4 6 6 5
21 20 18 16 15 15 15 14 13 10 13 14 13 14 13 12 12 11 10 8 8 8 8 7 7 4 5 5 3 3 3 3 4 5 3 2 3 5 5 5 5 4 4
21 20 18 17 16 17 17 13 14 13 12 14 15 15 15 14 12 11 11 8 7 10 8 7 7 7 6 5 5 4 3 2 2 2 3 2 3 3 4 2 2 3 3
21 21 19 19 18 18 16 16 11 14 14 15 15 15 14 13 13 11 10 9 7 7 8 9 8 8 8 7 6 6 5 3 1 2 3 3 3 3 1 1 4 2 4
21 21 21 18 17 17 16 16 17 12 14 13 13 11 11 11 10 11 10 10 8 8 9 9 9 10 12 11 6 6 5 4 3 3 3 3 3 2 3 3 2 2 4
21 22 19 18 17 17 16 15 15 15 13 11 12 12 10 9 11 15 13 10 10 10 9 8 8 12 10 14 12 11 10 6 4 4 2 4 5 3 2 2 3 2 3
21 18 19 18 18 18 16 15 14 16 11 12 11 10 7 9 16 17 16 8 9 10 10 8 7 7 9 7 6 7 7 8 7 5 6 6 5 4 2 4 3 3 4
20 19 18 18 18 17 16 16 13 12 10 10 9 10 8 7 8 11 15 10 7 8 9 8 8 7 5 6 6 5 6 5 6 5 7 8 6 7 5 5 6 4 3
18 20 19 19 18 17 17 15 11 10 10 9 8 8 11 9 14 12 10 8 7 7 6 6 8 6 7 7 6 6 6 5 5 11 12 13 11 11 13 1 5 2 4
19 19 18 17 18 17 16 14 10 12 11 10 11 12 12 10 14 16 10 4 5 3 5 6 7 6 8 13 8 6 6 5 5 5 3 4 7 7 12 7 7 4 4
13 11 14 15 16 16 15 12 12 12 12 13 13 12 17 13 9 13 12 5 5 5 5 4 4 8 6 9 9 6 6 1 2 3 4 4 5 5 5 4 5 5 4
12 12 13 15 13 12 15 11 10 10 9 7 4 1 1 7 9 10 14 13 8 7 5 4 5 9 8 10 10 7 7 5 3 3 3 4 4 3 3 3 5 5 4
16 15 14 13 13 13 12 11 9 9 8 6 5 4 2 3 4 11 13 12 7 4 3 3 4 5 6 4 8 10 9 3 4 3 4 4 3 3 4 4 4 3 3
17 15 13 14 12 10 8 8 9 8 7 8 8 6 4 3 4 3 3 3 3 3 6 4 4 4 5 4 4 4 4 5 5 4 4 3 1 2 2 2 2 3 2
16 13 13 11 11 10 8 5 7 4 2 6 6 6 6 5 4 8 9 5 5 6 5 3 1 2 2 3 3 4 5 5 5 4 2 2 1 1 2 2 2 3 2
15 11 9 10 8 9 9 8 18 10 9 8 1 8 3 5 13 13 10 8 9 10 2 3 3 5 5 6 7 5 5 7 4 2 2 2 1 2 3 3 2 2 3
13 11 9 10 7 8 7 8 11 7 16 16 14 10 10 11 12 13 11 10 7 7 3 3 4 4 4 4 5 4 2 2 3 1 2 2 1 2 3 3 3 3 4
11 20 10 8 9 8 7 6 6 8 4 2 13 9 11 10 11 10 9 8 2 1 2 2 2 2 3 3 3 4 3 4 3 2 1 2 3 2 2 3 4 3 4
10 8 9 9 8 9 8 8 8 7 6 6 4 7 4 7 9 8 5 2 3 2 2 1 3 5 5 5 5 4 3 3 2 1 2 2 4 1 3 4 5 7 6
5 11 7 9 9 10 9 9 8 7 7 7 6 5 5 4 3 4 3 3 1 3 5 5 4 4 5 5 4 3 2 2 2 3 3 2 2 2 3 5 4 5 4
5 4 8 6 5 6 8 9 11 9 9 9 8 8 12 8 6 5 5 5 4 5 5 5 4 4 4 4 4 2 0 3 1 3 3 3 4 4 5 4 4 5 4
5 4 3 4 4 5 3 2 12 12 10 9 7 7 16 5 5 5 5 5 5 6 6 6 5 4 5 5 4 3 3 3 3 4 4 4 4 5 4 4 5 4 4
10 10 7 4 7 5 4 4 6 6 7 6 9 8 8 6 4 5 8 7 6 5 6 6 6 5 5 4 4 4 4 4 4 5 4 3 4 5 4 4 5 4 4
4 8 6 4 4 3 5 5 5 2 4 7 7 8 8 5 5 6 6 6 5 5 6 6 6 8 6 5 3 4 5 5 4 5 5 2 4 5 5 4 4 6 5
10 6 7 5 5 4 5 4 4 4 5 6 5 7 7 6 5 7 6 5 6 6 7 7 6 10 10 10 9 9 7 9 6 4 2 2 4 7 6 3 4 5 5
4 7 5 4 4 4 5 5 4 6 6 8 6 6 6 6 4 5 7 7 6 6 7 6 8 12 12 10 11 13 9 9 7 6 2 1 3 5 5 5 7 5 5
Wind_Direction
189 191 194 195 195 195 203 194 182 185 163 173 174 171 176 175 178 176 186 189 190 195 199 197 207 186 186 191 144 134 168 162 179 295 214 226 233 245 275 250 234 236 237
188 189 195 192 191 193 204 202 200 190 177 177 175 179 183 180 182 181 187 192 200 198 199 185 196 188 210 218 193 207 204 190 164 227 267 287 285 284 248 268 262 240 240
186 189 189 191 193 197 201 197 195 195 180 181 181 185 186 185 182 189 193 191 194 204 196 193 199 192 206 205 206 208 213 210 167 178 268 263 250 252 292 265 274 286 275
184 188 190 191 194 199 197 199 188 192 187 184 189 190 189 181 183 179 183 191 199 202 204 196 193 205 207 202 201 204 214 218 191 203 250 259 249 287 126 108 303 287 289
185 189 191 191 194 196 197 194 200 193 194 184 182 184 181 180 183 173 188 194 201 209 206 207 206 209 205 197 191 207 181 179 177 222 240 233 248 237 211 227 240 275 286
187 193 188 189 188 193 194 195 194 200 197 177 178 175 174 188 170 178 184 192 199 206 216 213 213 214 218 199 190 175 176 173 194 196 232 240 263 260 257 239 197 209 277
193 189 190 189 189 191 189 191 190 194 185 176 171 163 167 185 186 189 191 198 203 212 217 217 215 214 180 186 229 212 189 198 196 181 222 216 245 225 249 269 255 229 228
191 191 189 190 189 185 187 188 182 183 167 163 157 169 165 181 207 202 201 201 198 210 212 204 209 219 194 181 183 215 228 216 224 225 223 241 224 250 225 239 242 248 295
186 189 188 187 184 183 185 178 164 155 153 158 161 157 177 182 192 195 187 199 204 212 211 212 222 218 199 194 189 214 240 251 249 225 223 237 248 256 261 214 267 238 273
192 189 181 180 178 176 171 162 143 150 152 147 167 176 178 192 193 196 183 174 178 224 247 252 229 219 196 196 193 193 236 253 250 294 306 277 252 262 255 210 255 234 263
185 159 163 167 163 159 149 144 146 156 159 172 176 183 176 182 177 178 173 165 197 210 218 235 224 218 208 188 191 194 206 163 281 289 288 289 292 287 280 262 201 186 224
133 138 139 140 142 140 133 136 158 155 151 148 155 112 192 142 147 177 182 201 186 206 216 219 221 220 202 199 186 202 171 168 228 269 285 283 283 292 253 252 252 244 235
124 130 131 126 129 131 127 130 126 119 120 109 111 127 190 164 160 179 189 200 186 180 160 127 139 156 174 177 190 191 178 193 225 229 249 257 234 273 296 314 324 329 312
119 122 116 113 113 111 115 115 114 119 128 146 154 165 172 202 146 130 115 118 130 104 112 133 178 171 142 126 136 194 193 204 207 215 228 236 281 334 329 319 314 300 327
113 112 113 110 111 101 74 79 116 67 117 176 183 142 141 171 202 153 146 162 172 172 152 109 134 79 155 197 214 200 214 217 222 229 241 264 263 332 307 295 280 302 276
119 124 129 130 122 117 112 86 41 54 65 47 125 120 96 141 139 127 139 143 163 157 119 167 190 206 208 204 204 205 206 213 220 224 193 203 270 273 285 304 280 265 268
121 118 110 111 115 112 115 124 118 72 59 60 58 81 99 138 121 122 122 112 109 133 166 202 206 215 226 188 182 177 182 228 152 115 11 329 292 301 324 295 298 298 291
96 131 116 124 125 132 121 122 113 100 108 36 37 64 76 105 112 122 130 107 96 13 220 232 257 267 155 112 99 99 76 83 92 111 11 301 316 328 301 317 313 282 293
127 138 128 138 143 143 132 140 119 125 126 118 101 68 80 105 117 124 138 140 159 244 188 81 97 99 88 92 94 93 101 113 150 359 329 338 315 273 326 320 306 307 310
121 135 135 139 149 151 148 129 146 148 133 143 153 164 173 135 140 172 189 162 159 141 122 108 102 101 106 109 107 104 64 4 314 284 267 301 315 10 337 309 310 315 298
69 77 114 105 113 130 137 159 165 159 161 169 174 178 177 161 176 183 181 183 178 132 128 117 115 129 133 130 122 120 32 297 287 119 90 45 19 354 322 303 318 312 295
35 49 70 122 109 116 146 103 164 167 172 158 163 178 177 193 182 176 184 183 178 153 143 134 129 112 125 120 122 112 81 21 93 89 66 38 9 336 313 325 326 311 320
41 18 16 83 93 113 96 76 89 127 140 158 157 159 184 208 227 182 157 155 168 150 140 132 135 126 140 136 124 129 116 117 114 100 72 25 355 335 315 328 315 310 337
151 182 183 263 120 140 134 121 123 143 152 154 151 164 174 202 183 164 145 151 160 145 143 144 139 141 135 136 112 98 125 125 115 99 94 38 327 332 322 315 326 317 321
174 195 223 179 132 141 123 110 151 159 158 151 147 169 176 194 167 160 148 170 146 153 161 159 153 155 152 134 136 128 125 108 112 108 75 22 320 318 301 292 333 319 323
159 158 156 141 131 136 145 149 163 142 160 174 165 178 174 177 188 176 162 173 172 174 178 169 166 158 159 149 150 150 143 142 132 126 117 341 311 308 299 308 336 323 323